| time (UTC) | temp F | wind direction | speed knots | gust knots | rain 1hr in | rain 24hr in | rain mn in | humidity % | barometer mb |
| 20260510192012 | 63 | 172 | 3.5 | 0.0 | 0.00 | 0.00 | 0.00 | 84 | 1012.6 |
| 20260510191513 | 63 | 157 | 3.5 | 0.0 | 0.00 | 0.00 | 0.00 | 84 | 1012.6 |
| 20260510191012 | 63 | 159 | 3.5 | 0.0 | 0.00 | 0.00 | 0.00 | 83 | 1012.5 |
| 20260510190512 | 63 | 157 | 2.6 | 0.0 | 0.00 | 0.00 | 0.00 | 83 | 1012.5 |
| 20260510190013 | 64 | 175 | 2.6 | 0.0 | 0.00 | 0.00 | 0.00 | 83 | 1012.5 |
| 20260510185512 | 63 | 166 | 2.6 | 0.0 | 0.00 | 0.00 | 0.00 | 84 | 1012.5 |
| 20260510185009 | 63 | 192 | 2.6 | 0.0 | 0.00 | 0.00 | 0.00 | 84 | 1012.5 |
| 20260510184509 | 63 | 183 | 2.6 | 0.0 | 0.00 | 0.00 | 0.00 | 84 | 1012.5 |
| 20260510184008 | 63 | 159 | 3.5 | 0.0 | 0.00 | 0.00 | 0.00 | 84 | 1012.6 |
| 20260510183508 | 63 | 209 | 2.6 | 0.0 | 0.00 | 0.00 | 0.00 | 84 | 1012.6 |
| 20260510183007 | 63 | 194 | 2.6 | 0.0 | 0.00 | 0.00 | 0.00 | 85 | 1012.6 |
| 20260510182506 | 63 | 188 | 2.6 | 0.0 | 0.00 | 0.00 | 0.00 | 85 | 1012.5 |
| 20260510182006 | 62 | 198 | 2.6 | 0.0 | 0.00 | 0.00 | 0.00 | 86 | 1012.5 |
| 20260510181506 | 62 | 180 | 2.6 | 0.0 | 0.00 | 0.00 | 0.00 | 85 | 1012.5 |
| 20260510181006 | 62 | 178 | 2.6 | 0.0 | 0.00 | 0.00 | 0.00 | 86 | 1012.6 |
| 20260510180505 | 62 | 194 | 2.6 | 0.0 | 0.00 | 0.00 | 0.00 | 87 | 1012.6 |
| 20260510180005 | 62 | 144 | 2.6 | 0.0 | 0.00 | 0.00 | 0.00 | 86 | 1012.4 |
| 20260510175502 | 62 | 171 | 2.6 | 0.0 | 0.00 | 0.00 | 0.00 | 87 | 1012.4 |
| 20260510175002 | 62 | 196 | 2.6 | 0.0 | 0.00 | 0.00 | 0.00 | 87 | 1012.4 |
| 20260510174502 | 62 | 155 | 2.6 | 0.0 | 0.00 | 0.00 | 0.00 | 88 | 1012.2 |
| 20260510174101 | 61 | 185 | 2.6 | 0.0 | 0.00 | 0.00 | 0.00 | 90 | 1012.2 |
| 20260510173602 | 61 | 165 | 2.6 | 0.0 | 0.00 | 0.00 | 0.00 | 90 | 1012.2 |
| 20260510173059 | 61 | 172 | 2.6 | 0.0 | 0.00 | 0.00 | 0.00 | 92 | 1012.2 |
| 20260510172559 | 61 | 157 | 1.7 | 0.0 | 0.00 | 0.00 | 0.00 | 93 | 1012.2 |
| 20260510172100 | 61 | 190 | 1.7 | 0.0 | 0.00 | 0.00 | 0.00 | 94 | 1012.2 |
| 20260510171556 | 60 | 154 | 2.6 | 0.0 | 0.00 | 0.00 | 0.00 | 94 | 1012.2 |
| 20260510171056 | 60 | 154 | 1.7 | 0.0 | 0.00 | 0.00 | 0.00 | 95 | 1012.2 |
| 20260510170555 | 60 | 180 | 1.7 | 0.0 | 0.00 | 0.00 | 0.00 | 96 | 1012.2 |
| 20260510170057 | 60 | 163 | 0.9 | 0.0 | 0.00 | 0.00 | 0.00 | 96 | 1012.2 |
| 20260510165553 | 59 | 166 | 0.9 | 0.0 | 0.00 | 0.00 | 0.00 | 96 | 1012.1 |
| 20260510165055 | 59 | 242 | 0.9 | 0.0 | 0.00 | 0.00 | 0.00 | 96 | 1012.1 |
| 20260510164552 | 58 | 190 | 0.9 | 0.0 | 0.00 | 0.00 | 0.00 | 96 | 1012.1 |
| 20260510164050 | 58 | 126 | 0.9 | 0.0 | 0.00 | 0.00 | 0.00 | 96 | 1012.2 |
| 20260510163550 | 57 | 201 | 0.9 | 0.0 | 0.00 | 0.00 | 0.00 | 96 | 1012.2 |
| 20260510163051 | 57 | 139 | 0.9 | 0.0 | 0.00 | 0.00 | 0.00 | 96 | 1012.2 |
| 20260510162546 | 57 | 173 | 0.9 | 0.0 | 0.00 | 0.00 | 0.00 | 96 | 1012.3 |
| 20260510162045 | 56 | 186 | 1.7 | 0.0 | 0.00 | 0.00 | 0.00 | 96 | 1012.3 |
| 20260510161545 | 56 | 209 | 1.7 | 0.0 | 0.00 | 0.00 | 0.00 | 96 | 1012.3 |
| 20260510161045 | 56 | 190 | 1.7 | 0.0 | 0.00 | 0.00 | 0.00 | 96 | 1012.1 |
| 20260510160545 | 56 | 165 | 1.7 | 0.0 | 0.00 | 0.00 | 0.00 | 96 | 1012.1 |
| 20260510160050 | 56 | 192 | 1.7 | 0.0 | 0.00 | 0.00 | 0.00 | 96 | 1012.1 |
| 20260510155544 | 56 | 165 | 0.9 | 0.0 | 0.00 | 0.00 | 0.00 | 96 | 1012.0 |
| 20260510155047 | 56 | 185 | 0.0 | 0.0 | 0.00 | 0.00 | 0.00 | 96 | 1012.0 |
| 20260510154546 | 56 | 109 | 0.9 | 0.0 | 0.00 | 0.00 | 0.00 | 96 | 1012.0 |
| 20260510154042 | 56 | 10 | 0.9 | 0.0 | 0.00 | 0.00 | 0.00 | 96 | 1012.0 |
| 20260510153541 | 55 | 156 | 0.0 | 0.0 | 0.00 | 0.00 | 0.00 | 96 | 1012.0 |
| 20260510153040 | 55 | 63 | 0.0 | 0.0 | 0.00 | 0.00 | 0.00 | 96 | 1012.0 |
| 20260510152540 | 55 | 63 | 1.7 | 0.0 | 0.00 | 0.00 | 0.00 | 96 | 1011.9 |
| 20260510152040 | 55 | 350 | 1.7 | 0.0 | 0.00 | 0.00 | 0.00 | 96 | 1011.9 |
| 20260510151539 | 55 | 360 | 0.9 | 0.0 | 0.00 | 0.00 | 0.00 | 96 | 1011.9 |
| 20260510151039 | 55 | 13 | 0.9 | 0.0 | 0.00 | 0.00 | 0.00 | 96 | 1011.8 |
| 20260510150539 | 55 | 347 | 0.9 | 0.0 | 0.00 | 0.00 | 0.00 | 96 | 1011.8 |
| 20260510150043 | 55 | 360 | 0.9 | 0.0 | 0.00 | 0.00 | 0.00 | 96 | 1011.8 |
| 20260510145544 | 55 | 90 | 0.9 | 0.0 | 0.00 | 0.00 | 0.00 | 96 | 1011.7 |
| 20260510145041 | 55 | 90 | 1.7 | 0.0 | 0.00 | 0.00 | 0.00 | 96 | 1011.7 |
| 20260510144538 | 54 | 342 | 0.9 | 0.0 | 0.00 | 0.00 | 0.00 | 96 | 1011.7 |
| 20260510144038 | 54 | 74 | 0.9 | 0.0 | 0.00 | 0.00 | 0.00 | 96 | 1011.5 |
| 20260510143537 | 54 | 22 | 0.9 | 0.0 | 0.00 | 0.00 | 0.00 | 96 | 1011.5 |
| 20260510143037 | 54 | 11 | 0.9 | 0.0 | 0.00 | 0.00 | 0.00 | 96 | 1011.5 |
| 20260510142537 | 54 | 67 | 0.9 | 0.0 | 0.00 | 0.00 | 0.00 | 96 | 1011.6 |
| 20260510142037 | 54 | 56 | 0.9 | 0.0 | 0.00 | 0.00 | 0.00 | 96 | 1011.6 |
| 20260510141537 | 54 | 355 | 1.7 | 0.0 | 0.00 | 0.00 | 0.00 | 96 | 1011.6 |
| 20260510141036 | 54 | 82 | 1.7 | 0.0 | 0.00 | 0.00 | 0.00 | 96 | 1011.4 |
| 20260510140536 | 54 | 126 | 1.7 | 0.0 | 0.00 | 0.00 | 0.00 | 96 | 1011.4 |
| 20260510140038 | 54 | 84 | 0.9 | 0.0 | 0.00 | 0.00 | 0.00 | 96 | 1011.4 |
| 20260510135537 | 54 | 45 | 0.9 | 0.0 | 0.00 | 0.00 | 0.00 | 96 | 1011.1 |
| 20260510135037 | 54 | 78 | 1.7 | 0.0 | 0.00 | 0.00 | 0.00 | 96 | 1011.1 |
| 20260510134537 | 54 | 76 | 0.9 | 0.0 | 0.00 | 0.00 | 0.00 | 96 | 1011.1 |
| 20260510134039 | 54 | 90 | 0.9 | 0.0 | 0.00 | 0.00 | 0.00 | 96 | 1011.0 |
| 20260510133539 | 54 | 46 | 2.6 | 0.0 | 0.00 | 0.00 | 0.00 | 96 | 1011.0 |
| 20260510133036 | 54 | 89 | 2.6 | 0.0 | 0.00 | 0.00 | 0.00 | 96 | 1011.0 |
| 20260510132535 | 54 | 76 | 1.7 | 0.0 | 0.00 | 0.00 | 0.00 | 95 | 1011.0 |
| 20260510132038 | 54 | 57 | 1.7 | 0.0 | 0.00 | 0.00 | 0.00 | 96 | 1011.0 |
| 20260510131534 | 54 | 64 | 1.7 | 0.0 | 0.00 | 0.00 | 0.00 | 96 | 1011.0 |
| 20260510131034 | 54 | 74 | 1.7 | 0.0 | 0.00 | 0.00 | 0.00 | 96 | 1010.8 |
| 20260510130534 | 54 | 91 | 1.7 | 0.0 | 0.00 | 0.00 | 0.00 | 96 | 1010.8 |
| 20260510130034 | 54 | 99 | 1.7 | 0.0 | 0.00 | 0.00 | 0.00 | 96 | 1010.8 |
| 20260510125533 | 54 | 55 | 1.7 | 0.0 | 0.00 | 0.00 | 0.00 | 96 | 1010.7 |
| 20260510125035 | 54 | 71 | 0.9 | 0.0 | 0.00 | 0.00 | 0.00 | 96 | 1010.7 |
| 20260510124534 | 54 | 19 | 0.9 | 0.0 | 0.00 | 0.00 | 0.00 | 96 | 1010.7 |
| 20260510124033 | 54 | 27 | 0.9 | 0.0 | 0.00 | 0.00 | 0.00 | 96 | 1010.8 |
| 20260510123533 | 54 | 55 | 0.9 | 0.0 | 0.00 | 0.00 | 0.00 | 96 | 1010.8 |
| 20260510123035 | 54 | 55 | 0.9 | 0.0 | 0.00 | 0.00 | 0.00 | 96 | 1010.8 |
| 20260510122532 | 54 | 51 | 0.9 | 0.0 | 0.00 | 0.00 | 0.00 | 96 | 1010.8 |
| 20260510122034 | 54 | 157 | 0.9 | 0.0 | 0.00 | 0.00 | 0.00 | 95 | 1010.8 |
| 20260510121533 | 54 | 63 | 0.0 | 0.0 | 0.00 | 0.00 | 0.00 | 96 | 1010.8 |
| 20260510121033 | 54 | 99 | 0.9 | 0.0 | 0.00 | 0.00 | 0.00 | 95 | 1010.8 |
| 20260510120533 | 54 | 99 | 0.9 | 0.0 | 0.00 | 0.00 | 0.00 | 95 | 1010.8 |
| 20260510120032 | 54 | 109 | 0.9 | 0.0 | 0.00 | 0.00 | 0.00 | 96 | 1010.8 |
| 20260510115531 | 53 | 81 | 0.9 | 0.0 | 0.00 | 0.00 | 0.00 | 96 | 1010.8 |
| 20260510115031 | 53 | 75 | 0.9 | 0.0 | 0.00 | 0.00 | 0.00 | 95 | 1010.8 |
| 20260510114537 | 53 | 65 | 0.9 | 0.0 | 0.00 | 0.00 | 0.00 | 95 | 1010.8 |
| 20260510114031 | 53 | 79 | 0.9 | 0.0 | 0.00 | 0.00 | 0.00 | 95 | 1010.7 |
| 20260510113532 | 53 | 29 | 0.9 | 0.0 | 0.00 | 0.00 | 0.00 | 95 | 1010.7 |
| 20260510113035 | 53 | 360 | 1.7 | 0.0 | 0.00 | 0.00 | 0.00 | 95 | 1010.7 |
| 20260510112530 | 53 | 44 | 0.9 | 0.0 | 0.00 | 0.00 | 0.00 | 95 | 1010.7 |
| 20260510112029 | 54 | 88 | 0.0 | 0.0 | 0.00 | 0.00 | 0.00 | 95 | 1010.7 |
| 20260510111530 | 53 | 30 | 0.9 | 0.0 | 0.00 | 0.00 | 0.00 | 95 | 1010.7 |
| 20260510111029 | 53 | 355 | 2.6 | 0.0 | 0.00 | 0.00 | 0.00 | 95 | 1010.7 |
| 20260510110528 | 54 | 5 | 1.7 | 0.0 | 0.00 | 0.00 | 0.00 | 95 | 1010.7 |
| 20260510110028 | 54 | 46 | 0.9 | 0.0 | 0.00 | 0.00 | 0.00 | 95 | 1010.7 |
| 20260510105528 | 54 | 25 | 1.7 | 0.0 | 0.00 | 0.00 | 0.00 | 95 | 1010.7 |
| 20260510105027 | 54 | 43 | 1.7 | 0.0 | 0.00 | 0.00 | 0.00 | 95 | 1010.7 |
| 20260510104533 | 54 | 25 | 1.7 | 0.0 | 0.00 | 0.00 | 0.00 | 95 | 1010.7 |
| 20260510104026 | 54 | 55 | 1.7 | 0.0 | 0.00 | 0.00 | 0.00 | 95 | 1010.7 |
| 20260510103528 | 54 | 51 | 1.7 | 0.0 | 0.00 | 0.00 | 0.00 | 95 | 1010.7 |
| 20260510103028 | 54 | 65 | 0.9 | 0.0 | 0.00 | 0.00 | 0.00 | 95 | 1010.7 |
| 20260510102527 | 54 | 133 | 0.0 | 0.0 | 0.00 | 0.00 | 0.00 | 95 | 1010.6 |
| 20260510102027 | 54 | 133 | 0.0 | 0.0 | 0.00 | 0.00 | 0.00 | 95 | 1010.6 |
| 20260510101526 | 54 | 133 | 0.0 | 0.0 | 0.00 | 0.00 | 0.00 | 95 | 1010.6 |
| 20260510101026 | 54 | 132 | 0.0 | 0.0 | 0.00 | 0.00 | 0.00 | 95 | 1010.9 |
| 20260510100525 | 54 | 257 | 0.0 | 0.0 | 0.00 | 0.00 | 0.00 | 95 | 1010.9 |
| 20260510100024 | 54 | 257 | 0.0 | 0.0 | 0.00 | 0.00 | 0.00 | 95 | 1010.9 |
| 20260510095524 | 54 | 123 | 0.0 | 0.0 | 0.00 | 0.00 | 0.00 | 95 | 1010.9 |
| 20260510095023 | 54 | 123 | 0.0 | 0.0 | 0.00 | 0.00 | 0.00 | 95 | 1010.9 |
| 20260510094534 | 54 | 123 | 0.0 | 0.0 | 0.00 | 0.00 | 0.00 | 95 | 1010.9 |
| 20260510094023 | 54 | 123 | 0.0 | 0.0 | 0.00 | 0.00 | 0.00 | 95 | 1010.9 |
| 20260510093523 | 54 | 123 | 0.0 | 0.0 | 0.00 | 0.00 | 0.00 | 95 | 1010.9 |
| 20260510093023 | 54 | 123 | 0.0 | 0.0 | 0.00 | 0.00 | 0.00 | 95 | 1010.9 |
| 20260510092523 | 54 | 123 | 0.0 | 0.0 | 0.00 | 0.00 | 0.00 | 95 | 1010.9 |
| 20260510092022 | 54 | 123 | 0.0 | 0.0 | 0.00 | 0.00 | 0.00 | 95 | 1010.9 |
| 20260510091523 | 54 | 123 | 0.9 | 0.0 | 0.00 | 0.00 | 0.00 | 95 | 1010.9 |
| 20260510091023 | 54 | 123 | 0.0 | 0.0 | 0.00 | 0.00 | 0.00 | 95 | 1010.9 |
| 20260510090522 | 54 | 123 | 0.0 | 0.0 | 0.00 | 0.00 | 0.00 | 95 | 1010.9 |
| 20260510090022 | 54 | 25 | 0.0 | 0.0 | 0.00 | 0.00 | 0.00 | 95 | 1010.9 |
| 20260510085521 | 54 | 25 | 0.0 | 0.0 | 0.00 | 0.00 | 0.00 | 95 | 1010.9 |
| 20260510085021 | 54 | 126 | 0.9 | 0.0 | 0.00 | 0.00 | 0.00 | 95 | 1010.9 |
| 20260510084521 | 54 | 126 | 0.9 | 0.0 | 0.00 | 0.00 | 0.00 | 95 | 1010.9 |
| 20260510084022 | 54 | 121 | 0.0 | 0.0 | 0.00 | 0.00 | 0.00 | 95 | 1010.9 |
| 20260510083521 | 54 | 121 | 0.0 | 0.0 | 0.00 | 0.00 | 0.00 | 95 | 1010.9 |
| 20260510083021 | 54 | 134 | 0.0 | 0.0 | 0.00 | 0.00 | 0.00 | 95 | 1010.9 |
| 20260510082521 | 54 | 134 | 0.0 | 0.0 | 0.00 | 0.00 | 0.00 | 95 | 1011.0 |
| 20260510082024 | 54 | 134 | 0.9 | 0.0 | 0.00 | 0.00 | 0.00 | 95 | 1011.0 |
| 20260510081533 | 55 | 136 | 0.9 | 0.0 | 0.00 | 0.00 | 0.00 | 95 | 1011.0 |
| 20260510081019 | 55 | 134 | 0.9 | 0.0 | 0.00 | 0.00 | 0.00 | 95 | 1011.3 |
| 20260510080518 | 55 | 119 | 0.0 | 0.0 | 0.00 | 0.00 | 0.00 | 95 | 1011.3 |
| 20260510080025 | 55 | 119 | 0.0 | 0.0 | 0.00 | 0.00 | 0.00 | 95 | 1011.3 |
| 20260510075521 | 55 | 119 | 0.9 | 0.0 | 0.00 | 0.00 | 0.00 | 95 | 1011.4 |
| 20260510075018 | 55 | 119 | 0.9 | 0.0 | 0.00 | 0.00 | 0.00 | 95 | 1011.4 |
| 20260510074518 | 55 | 119 | 0.9 | 0.0 | 0.00 | 0.00 | 0.00 | 95 | 1011.4 |
| 20260510074017 | 55 | 98 | 0.9 | 0.0 | 0.00 | 0.00 | 0.00 | 95 | 1011.6 |
| 20260510073517 | 55 | 141 | 0.9 | 0.0 | 0.00 | 0.00 | 0.00 | 95 | 1011.6 |
| 20260510073017 | 55 | 123 | 0.9 | 0.0 | 0.00 | 0.00 | 0.00 | 95 | 1011.6 |
| 20260510072517 | 55 | 150 | 0.9 | 0.0 | 0.00 | 0.00 | 0.00 | 95 | 1011.6 |
| 20260510072017 | 55 | 146 | 0.9 | 0.0 | 0.00 | 0.00 | 0.00 | 95 | 1011.6 |
| 20260510071516 | 55 | 141 | 0.9 | 0.0 | 0.00 | 0.00 | 0.00 | 95 | 1011.6 |
| 20260510071015 | 55 | 141 | 0.9 | 0.0 | 0.00 | 0.00 | 0.00 | 95 | 1011.6 |
| 20260510070518 | 55 | 150 | 0.9 | 0.0 | 0.00 | 0.00 | 0.00 | 95 | 1011.6 |
| 20260510070016 | 55 | 190 | 0.0 | 0.0 | 0.00 | 0.00 | 0.00 | 95 | 1011.6 |
| 20260510065515 | 55 | 153 | 0.9 | 0.0 | 0.00 | 0.00 | 0.00 | 94 | 1011.6 |
| 20260510065015 | 55 | 125 | 0.9 | 0.0 | 0.00 | 0.00 | 0.00 | 94 | 1011.6 |
| 20260510064519 | 55 | 127 | 0.9 | 0.0 | 0.00 | 0.00 | 0.00 | 94 | 1011.6 |
| 20260510064014 | 55 | 122 | 0.9 | 0.0 | 0.00 | 0.00 | 0.00 | 94 | 1011.6 |
| 20260510063514 | 55 | 92 | 0.9 | 0.0 | 0.00 | 0.00 | 0.00 | 94 | 1011.6 |
| 20260510063017 | 55 | 88 | 0.9 | 0.0 | 0.00 | 0.00 | 0.00 | 94 | 1011.6 |
| 20260510062513 | 55 | 61 | 0.9 | 0.0 | 0.00 | 0.00 | 0.00 | 94 | 1011.5 |
| 20260510062018 | 55 | 65 | 0.9 | 0.0 | 0.00 | 0.00 | 0.00 | 94 | 1011.5 |
| 20260510061523 | 55 | 54 | 0.9 | 0.0 | 0.00 | 0.00 | 0.00 | 94 | 1011.5 |
| 20260510061014 | 55 | 54 | 0.9 | 0.0 | 0.00 | 0.00 | 0.00 | 94 | 1011.6 |
| 20260510060517 | 55 | 54 | 0.9 | 0.0 | 0.00 | 0.00 | 0.00 | 94 | 1011.6 |
| 20260510060012 | 55 | 115 | 0.0 | 0.0 | 0.00 | 0.00 | 0.00 | 94 | 1011.6 |
| 20260510055512 | 54 | 115 | 0.0 | 0.0 | 0.00 | 0.00 | 0.00 | 94 | 1011.7 |
| 20260510055013 | 55 | 115 | 0.9 | 0.0 | 0.00 | 0.00 | 0.00 | 94 | 1011.7 |
| 20260510054513 | 55 | 130 | 0.0 | 0.0 | 0.00 | 0.00 | 0.00 | 94 | 1011.7 |
| 20260510054012 | 55 | 186 | 0.0 | 0.0 | 0.00 | 0.00 | 0.00 | 94 | 1011.7 |
| 20260510053512 | 55 | 186 | 0.0 | 0.0 | 0.00 | 0.00 | 0.00 | 94 | 1011.7 |
| 20260510053012 | 55 | 186 | 0.9 | 0.0 | 0.00 | 0.00 | 0.00 | 94 | 1011.7 |
| 20260510052512 | 55 | 186 | 0.9 | 0.0 | 0.00 | 0.00 | 0.00 | 94 | 1011.7 |
| 20260510052012 | 55 | 179 | 0.9 | 0.0 | 0.00 | 0.00 | 0.00 | 94 | 1011.7 |
| 20260510051526 | 55 | 179 | 0.0 | 0.0 | 0.00 | 0.00 | 0.00 | 94 | 1011.7 |
| 20260510051012 | 54 | 179 | 0.0 | 0.0 | 0.00 | 0.00 | 0.00 | 94 | 1011.8 |
| 20260510050511 | 55 | 179 | 0.0 | 0.0 | 0.00 | 0.00 | 0.00 | 93 | 1011.8 |
| 20260510050011 | 55 | 179 | 0.0 | 0.0 | 0.00 | 0.00 | 0.00 | 93 | 1011.8 |
| 20260510045515 | 55 | 179 | 0.9 | 0.0 | 0.00 | 0.00 | 0.00 | 93 | 1011.8 |
| 20260510045011 | 55 | 179 | 0.9 | 0.0 | 0.00 | 0.00 | 0.00 | 93 | 1011.8 |
| 20260510044512 | 55 | 211 | 0.0 | 0.0 | 0.00 | 0.00 | 0.00 | 93 | 1011.8 |
| 20260510044011 | 56 | 225 | 0.0 | 0.0 | 0.00 | 0.00 | 0.00 | 93 | 1011.6 |
| 20260510043511 | 56 | 225 | 0.0 | 0.0 | 0.00 | 0.00 | 0.00 | 93 | 1011.6 |
| 20260510043019 | 56 | 225 | 0.0 | 0.0 | 0.00 | 0.00 | 0.00 | 93 | 1011.6 |
| 20260510042511 | 56 | 225 | 0.0 | 0.0 | 0.00 | 0.00 | 0.00 | 93 | 1011.5 |
| 20260510042010 | 56 | 225 | 0.0 | 0.0 | 0.00 | 0.00 | 0.00 | 93 | 1011.5 |
| 20260510041510 | 56 | 225 | 0.0 | 0.0 | 0.00 | 0.00 | 0.00 | 93 | 1011.5 |
| 20260510041010 | 57 | 225 | 0.0 | 0.0 | 0.00 | 0.00 | 0.00 | 92 | 1011.3 |
| 20260510040510 | 57 | 225 | 0.0 | 0.0 | 0.00 | 0.00 | 0.00 | 92 | 1011.3 |
| 20260510040010 | 57 | 225 | 0.0 | 0.0 | 0.00 | 0.00 | 0.00 | 92 | 1011.3 |
| 20260510035509 | 57 | 225 | 0.0 | 0.0 | 0.00 | 0.00 | 0.00 | 92 | 1011.2 |
| 20260510035013 | 57 | 225 | 0.0 | 0.0 | 0.00 | 0.00 | 0.00 | 92 | 1011.2 |
| 20260510034509 | 57 | 225 | 0.0 | 0.0 | 0.00 | 0.00 | 0.00 | 92 | 1011.2 |
| 20260510034012 | 57 | 225 | 0.0 | 0.0 | 0.00 | 0.00 | 0.00 | 92 | 1010.9 |
| 20260510033509 | 57 | 225 | 0.0 | 0.0 | 0.00 | 0.00 | 0.00 | 92 | 1010.9 |
| 20260510033009 | 57 | 225 | 0.0 | 0.0 | 0.00 | 0.00 | 0.00 | 92 | 1010.9 |
| 20260510032512 | 57 | 225 | 0.0 | 0.0 | 0.00 | 0.00 | 0.00 | 91 | 1010.7 |
| 20260510032009 | 57 | 225 | 0.0 | 0.0 | 0.00 | 0.00 | 0.00 | 91 | 1010.7 |
| 20260510031509 | 58 | 225 | 0.0 | 0.0 | 0.00 | 0.00 | 0.00 | 90 | 1010.7 |
| 20260510031009 | 58 | 225 | 0.9 | 0.0 | 0.00 | 0.00 | 0.00 | 90 | 1010.6 |
| 20260510030510 | 58 | 225 | 0.9 | 0.0 | 0.00 | 0.00 | 0.00 | 89 | 1010.6 |
| 20260510030012 | 59 | 203 | 0.0 | 0.0 | 0.00 | 0.00 | 0.00 | 88 | 1010.6 |
| 20260510025508 | 59 | 203 | 0.9 | 0.0 | 0.00 | 0.00 | 0.00 | 88 | 1010.4 |
| 20260510025008 | 60 | 203 | 0.9 | 0.0 | 0.00 | 0.00 | 0.00 | 87 | 1010.4 |
| 20260510024508 | 60 | 200 | 0.9 | 0.0 | 0.00 | 0.00 | 0.00 | 87 | 1010.4 |
| 20260510024009 | 60 | 270 | 0.0 | 0.0 | 0.00 | 0.00 | 0.00 | 86 | 1010.3 |
| 20260510023507 | 61 | 270 | 0.0 | 0.0 | 0.00 | 0.00 | 0.00 | 85 | 1010.3 |
| 20260510023007 | 61 | 270 | 0.9 | 0.0 | 0.00 | 0.00 | 0.00 | 84 | 1010.3 |
| 20260510022511 | 62 | 197 | 0.9 | 0.0 | 0.00 | 0.00 | 0.00 | 83 | 1010.2 |
| 20260510022008 | 63 | 197 | 1.7 | 0.0 | 0.00 | 0.00 | 0.00 | 83 | 1010.2 |
| 20260510021513 | 63 | 227 | 0.9 | 0.0 | 0.00 | 0.00 | 0.00 | 82 | 1010.2 |
| 20260510021007 | 64 | 205 | 0.9 | 0.0 | 0.00 | 0.00 | 0.00 | 82 | 1010.0 |
| 20260510020506 | 64 | 165 | 0.9 | 0.0 | 0.00 | 0.00 | 0.00 | 82 | 1010.0 |
| 20260510020006 | 64 | 165 | 0.0 | 0.0 | 0.00 | 0.00 | 0.00 | 82 | 1009.9 |
| 20260510015508 | 64 | 190 | 0.9 | 0.0 | 0.00 | 0.00 | 0.00 | 82 | 1009.9 |
| 20260510015006 | 64 | 156 | 1.7 | 0.0 | 0.00 | 0.00 | 0.00 | 81 | 1009.9 |
| 20260510014506 | 65 | 175 | 0.9 | 0.0 | 0.00 | 0.00 | 0.00 | 80 | 1009.7 |
| 20260510014006 | 65 | 219 | 0.9 | 0.0 | 0.00 | 0.00 | 0.00 | 79 | 1009.7 |
| 20260510013506 | 66 | 193 | 0.9 | 0.0 | 0.00 | 0.00 | 0.00 | 78 | 1009.7 |
| 20260510013006 | 66 | 169 | 0.9 | 0.0 | 0.00 | 0.00 | 0.00 | 78 | 1009.7 |
| 20260510012505 | 67 | 274 | 0.9 | 0.0 | 0.00 | 0.00 | 0.00 | 78 | 1009.7 |
| 20260510012005 | 67 | 165 | 1.7 | 0.0 | 0.00 | 0.00 | 0.00 | 77 | 1009.7 |
| 20260510011506 | 67 | 180 | 1.7 | 0.0 | 0.00 | 0.00 | 0.00 | 77 | 1009.7 |
| 20260510011005 | 68 | 179 | 1.7 | 0.0 | 0.00 | 0.00 | 0.00 | 76 | 1009.7 |
| 20260510010505 | 68 | 169 | 1.7 | 0.0 | 0.00 | 0.00 | 0.00 | 77 | 1009.7 |
| 20260510010005 | 67 | 168 | 1.7 | 0.0 | 0.00 | 0.00 | 0.00 | 77 | 1009.7 |
| 20260510005505 | 67 | 186 | 1.7 | 0.0 | 0.00 | 0.00 | 0.00 | 77 | 1009.7 |
| 20260510005006 | 67 | 161 | 1.7 | 0.0 | 0.00 | 0.00 | 0.00 | 78 | 1009.7 |
| 20260510004504 | 67 | 164 | 1.7 | 0.0 | 0.00 | 0.00 | 0.00 | 79 | 1009.8 |
| 20260510004007 | 67 | 156 | 1.7 | 0.0 | 0.00 | 0.00 | 0.00 | 80 | 1009.8 |
| 20260510003504 | 67 | 195 | 1.7 | 0.0 | 0.00 | 0.00 | 0.00 | 78 | 1009.8 |
| 20260510003004 | 67 | 153 | 2.6 | 0.0 | 0.00 | 0.00 | 0.00 | 78 | 1009.9 |
| 20260510002505 | 67 | 190 | 2.6 | 0.0 | 0.00 | 0.00 | 0.00 | 77 | 1009.9 |
| 20260510002003 | 68 | 159 | 2.6 | 0.0 | 0.00 | 0.00 | 0.00 | 77 | 1009.9 |
| 20260510001506 | 68 | 200 | 2.6 | 0.0 | 0.00 | 0.00 | 0.00 | 77 | 1009.9 |
| 20260510001003 | 68 | 165 | 1.7 | 0.0 | 0.00 | 0.00 | 0.00 | 76 | 1009.9 |
| 20260510000502 | 68 | 211 | 1.7 | 0.0 | 0.00 | 0.00 | 0.00 | 76 | 1009.9 |
| 20260510000004 | 68 | 126 | 1.7 | 0.0 | 0.00 | 0.00 | 0.00 | 78 | 1010.0 |
| 20260509235501 | 68 | 133 | 1.7 | 0.0 | 0.00 | 0.00 | 0.00 | 77 | 1010.0 |
| 20260509235001 | 68 | 126 | 1.7 | 0.0 | 0.00 | 0.00 | 0.00 | 77 | 1010.0 |
| 20260509234600 | 68 | 180 | 2.6 | 0.0 | 0.00 | 0.00 | 0.00 | 78 | 1010.0 |
| 20260509234100 | 67 | 182 | 2.6 | 0.0 | 0.00 | 0.00 | 0.00 | 78 | 1010.1 |
| 20260509233600 | 67 | 126 | 1.7 | 0.0 | 0.00 | 0.00 | 0.00 | 79 | 1010.1 |
| 20260509233059 | 66 | 136 | 1.7 | 0.0 | 0.00 | 0.00 | 0.00 | 80 | 1010.1 |
| 20260509232600 | 66 | 173 | 1.7 | 0.0 | 0.00 | 0.00 | 0.00 | 80 | 1010.2 |
| 20260509232059 | 66 | 161 | 1.7 | 0.0 | 0.00 | 0.00 | 0.00 | 81 | 1010.2 |
| 20260509231609 | 66 | 188 | 1.7 | 0.0 | 0.00 | 0.00 | 0.00 | 79 | 1010.2 |
| 20260509231059 | 66 | 190 | 1.7 | 0.0 | 0.00 | 0.00 | 0.00 | 80 | 1010.1 |
| 20260509230604 | 66 | 155 | 2.6 | 0.0 | 0.00 | 0.00 | 0.00 | 81 | 1010.1 |
| 20260509230058 | 66 | 156 | 2.6 | 0.0 | 0.00 | 0.00 | 0.00 | 80 | 1010.1 |
| 20260509225558 | 66 | 196 | 2.6 | 0.0 | 0.00 | 0.00 | 0.00 | 80 | 1010.2 |
| 20260509225057 | 67 | 182 | 2.6 | 0.0 | 0.00 | 0.00 | 0.00 | 79 | 1010.2 |
| 20260509224558 | 67 | 213 | 2.6 | 0.0 | 0.00 | 0.00 | 0.00 | 79 | 1010.2 |
| 20260509224056 | 67 | 147 | 1.7 | 0.0 | 0.00 | 0.00 | 0.00 | 80 | 1010.3 |
| 20260509223555 | 67 | 212 | 2.6 | 0.0 | 0.00 | 0.00 | 0.00 | 81 | 1010.3 |
| 20260509223055 | 66 | 192 | 2.6 | 0.0 | 0.00 | 0.00 | 0.00 | 81 | 1010.3 |
| 20260509222552 | 66 | 207 | 2.6 | 0.0 | 0.00 | 0.00 | 0.00 | 82 | 1010.8 |
| 20260509222051 | 65 | 211 | 1.7 | 0.0 | 0.00 | 0.00 | 0.00 | 83 | 1010.8 |
| 20260509221551 | 65 | 166 | 2.6 | 0.0 | 0.00 | 0.00 | 0.00 | 84 | 1010.8 |
| 20260509221052 | 65 | 167 | 2.6 | 0.0 | 0.00 | 0.00 | 0.00 | 84 | 1010.9 |
| 20260509220551 | 64 | 211 | 2.6 | 0.0 | 0.00 | 0.00 | 0.00 | 85 | 1010.9 |
| 20260509220050 | 64 | 184 | 2.6 | 0.0 | 0.00 | 0.00 | 0.00 | 85 | 1010.9 |
| 20260509215554 | 64 | 190 | 2.6 | 0.0 | 0.00 | 0.00 | 0.00 | 84 | 1011.0 |
| 20260509215050 | 64 | 163 | 2.6 | 0.0 | 0.00 | 0.00 | 0.00 | 86 | 1011.0 |
| 20260509214549 | 64 | 181 | 2.6 | 0.0 | 0.00 | 0.00 | 0.00 | 85 | 1011.0 |
| 20260509214053 | 64 | 175 | 3.5 | 0.0 | 0.00 | 0.00 | 0.00 | 84 | 1011.1 |
| 20260509213549 | 65 | 157 | 3.5 | 0.0 | 0.00 | 0.00 | 0.00 | 85 | 1011.1 |
| 20260509213049 | 65 | 131 | 2.6 | 0.0 | 0.00 | 0.00 | 0.00 | 84 | 1011.1 |
| 20260509212548 | 65 | 136 | 2.6 | 0.0 | 0.00 | 0.00 | 0.00 | 84 | 1011.3 |
| 20260509212049 | 65 | 142 | 2.6 | 0.0 | 0.00 | 0.00 | 0.00 | 83 | 1011.3 |
| 20260509211555 | 65 | 160 | 2.6 | 0.0 | 0.00 | 0.00 | 0.00 | 83 | 1011.3 |
| 20260509211048 | 65 | 206 | 2.6 | 0.0 | 0.00 | 0.00 | 0.00 | 83 | 1011.4 |
| 20260509210548 | 65 | 239 | 2.6 | 0.0 | 0.00 | 0.00 | 0.00 | 83 | 1011.4 |
| 20260509210054 | 65 | 212 | 2.6 | 0.0 | 0.00 | 0.00 | 0.00 | 83 | 1011.4 |
| 20260509205545 | 65 | 188 | 2.6 | 0.0 | 0.00 | 0.00 | 0.00 | 84 | 1011.4 |
| 20260509205044 | 65 | 148 | 2.6 | 0.0 | 0.00 | 0.00 | 0.00 | 85 | 1011.4 |
| 20260509204546 | 64 | 175 | 2.6 | 0.0 | 0.00 | 0.00 | 0.00 | 86 | 1011.4 |
| 20260509204044 | 64 | 160 | 2.6 | 0.0 | 0.00 | 0.00 | 0.00 | 85 | 1011.5 |
| 20260509203545 | 64 | 178 | 2.6 | 0.0 | 0.00 | 0.00 | 0.00 | 85 | 1011.5 |
| 20260509203042 | 64 | 164 | 2.6 | 0.0 | 0.00 | 0.00 | 0.00 | 87 | 1011.5 |
| 20260509202541 | 63 | 198 | 2.6 | 0.0 | 0.00 | 0.00 | 0.00 | 88 | 1011.7 |
| 20260509202041 | 63 | 171 | 2.6 | 0.0 | 0.00 | 0.00 | 0.00 | 89 | 1011.7 |
| 20260509201539 | 63 | 181 | 2.6 | 0.0 | 0.00 | 0.00 | 0.00 | 89 | 1011.7 |
| 20260509201037 | 62 | 155 | 2.6 | 0.0 | 0.00 | 0.00 | 0.00 | 90 | 1011.9 |
| 20260509200538 | 62 | 211 | 3.5 | 0.0 | 0.00 | 0.00 | 0.00 | 89 | 1011.9 |
| 20260509200043 | 62 | 153 | 2.6 | 0.0 | 0.00 | 0.00 | 0.00 | 90 | 1011.9 |
| 20260509195538 | 62 | 167 | 2.6 | 0.0 | 0.00 | 0.00 | 0.00 | 90 | 1012.1 |
| 20260509195033 | 61 | 180 | 2.6 | 0.0 | 0.00 | 0.00 | 0.00 | 91 | 1012.1 |
| 20260509194535 | 61 | 161 | 2.6 | 0.0 | 0.00 | 0.00 | 0.00 | 90 | 1012.1 |
| 20260509194035 | 61 | 205 | 2.6 | 0.0 | 0.00 | 0.00 | 0.00 | 91 | 1012.2 |
| 20260509193533 | 61 | 198 | 3.5 | 0.0 | 0.00 | 0.00 | 0.00 | 91 | 1012.2 |
| 20260509193032 | 61 | 159 | 3.5 | 0.0 | 0.00 | 0.00 | 0.00 | 91 | 1012.2 |
| 20260509192531 | 61 | 179 | 3.5 | 0.0 | 0.00 | 0.00 | 0.00 | 92 | 1012.3 |